Location: Ravensburg
(47.7866°N, 9.6124°E)
Time: 22:05:02
(UTC+01:00)

JY1SAT - Visible Passes

Search period start: 16 March 2026 00:00
Search period end: 26 March 2026 00:00
Orbit: 471 x 478 km, 97.4° (Epoch: 16 March)

Date Brightness Start Highest point End Pass type
(mag) Time Alt. Az. Time Alt. Az. Time Alt. Az.
16 Mar ? 20:46:03 16° NNE 20:46:03 16° NNE 20:47:00 10° N visible
17 Mar ? 20:18:04 12° NE 20:18:04 12° NE 20:18:39 10° NNE visible
17 Mar ? 21:52:12 14° NNW 21:52:12 14° NNW 21:52:49 10° NNW visible
18 Mar ? 21:24:10 19° N 21:24:10 19° N 21:25:17 10° N visible
19 Mar ? 20:56:07 20° NNE 20:56:07 20° NNE 20:57:26 10° N visible
20 Mar ? 20:28:02 15° NE 20:28:02 15° NE 20:29:11 10° NNE visible
20 Mar ? 22:02:10 15° NW 22:02:10 15° NW 22:02:53 10° NNW visible
21 Mar ? 21:34:03 21° NNW 21:34:03 21° NNW 21:35:23 10° NNW visible
22 Mar ? 21:05:55 24° N 21:05:55 24° N 21:07:32 10° N visible
23 Mar ? 20:37:44 19° NE 20:37:44 19° NE 20:39:21 10° NNE visible
23 Mar ? 22:11:52 14° NW 22:11:52 14° NW 22:12:37 10° NW visible
24 Mar ? 20:09:32 12° NE 20:09:32 12° NE 20:10:30 10° NE visible
24 Mar ? 21:43:39 23° NNW 21:43:39 23° NNW 21:45:09 10° NNW visible
25 Mar ? 21:15:25 29° N 21:15:25 29° N 21:17:19 10° N visible
